Regional Weather Roundup
Issued by NWS Glasgow, MT

Home | Current Version | Previous Version | Text Only | Print | Product List | Glossary On
Versions: 1 2 3 4 5 6 7 8 9 10 11 12 13 14 15 16 17 18 19 20 21 22 23 24 25 26 27 28 29 30 31 32 33 34 35 36 37 38 39 40 41 42 43 44 45 46 47 48 49 50
000
ASUS45 KGGW 291315
RWRGGW
HOURLY WEATHER ROUNDUP FOR NORTHEAST MONTANA
NATIONAL WEATHER SERVICE GLASGOW MONTANA
700 AM MDT TUE JUL 29 2014

NOTE: "FAIR" INDICATES FEW OR NO CLOUDS BELOW 12,000 FEET WITH NO
SIGNIFICANT WEATHER AND/OR OBSTRUCTIONS TO VISISBILITY.

NORTHEAST MONTANA


CITY           SKY/WX    TMP DP  RH WIND       PRES   REMARKS
GLASGOW        MOSUNNY   64  50  60 E5        30.20S
PLENTYWOOD       N/A     53  51  93 W1          N/A
WOLF POINT     MOSUNNY   58  49  72 CALM      30.22R
JORDAN           N/A     70  52  52 SE5       30.19F
WINNETT          N/A     69  47  45 E2          N/A
SIDNEY         MOSUNNY   59  52  77 CALM      30.22R
GLENDIVE       MOSUNNY   61  54  77 W3        30.24R
MALTA            N/A    N/A N/A N/A N3          N/A

FORT PECK REPORTS


CITY           SKY/WX    TMP DP  RH WIND       PRES   REMARKS
FORT PECK        N/A     69  52  54 CALM        N/A
THE PINES        N/A     68  56  65 NE2         N/A

SOUTHEAST MONTANA


CITY           SKY/WX    TMP DP  RH WIND       PRES   REMARKS
BILLINGS       PTCLDY    67  46  47 N12       30.21S
MILES CITY     PTSUNNY   68  52  56 E3        30.22R
BAKER          SUNNY     58  52  80 E5        30.24S
LIVINGSTON     PTCLDY    61  43  51 E5        30.28R

CENTRAL MONTANA


CITY           SKY/WX    TMP DP  RH WIND       PRES   REMARKS
HAVRE          CLEAR     62  49  62 E7        30.17R
LEWISTOWN      MOCLDY    68  46  45 E10       30.24R
GREAT FALLS    PTCLDY    63  52  67 CALM      30.19R
CUT BANK       CLEAR     53  46  77 NW6       30.22S
HELENA         PTCLDY    65  43  44 CALM      30.22R
BUTTE          PTCLDY    48  40  73 W3        30.31S
BOZEMAN        PTCLDY    56  46  69 N3        30.25R

WESTERN MONTANA


CITY           SKY/WX    TMP DP  RH WIND       PRES   REMARKS
MISSOULA       CLEAR     58  43  57 CALM      30.20R
KALISPELL      NOT AVBL

NORTH DAKOTA


CITY           SKY/WX    TMP DP  RH WIND       PRES   REMARKS
WILLISTON      SUNNY     62  53  72 CALM      30.21R
DICKINSON      SUNNY     56  52  86 CALM      30.22S
MINOT          SUNNY     61  55  81 CALM      30.21R
BISMARCK       SUNNY     54  51  90 CALM      30.24S FOG

SOUTHERN SASKATCHEWAN


CITY           SKY/WX    TMP DP  RH WIND       PRES   REMARKS
REGINA         SUNNY     59  57  94 CALM      30.23S
MOOSE JAW      SUNNY     57  55  94 W2        30.23S
ESTEVAN        MOSUNNY   61  59  94 CALM      30.22S
SWIFT CURRENT  SUNNY     59  54  82 SE7       30.23S



USA.gov is the U.S. government's official web portal to all federal, state and local government web resources and services.